Location: Unspecified
(47.6578°N, 23.5640°E)
Time: 01:18:19
(UTC+03:00)

ISS - Pass Details

Date: 28 January 2018
Orbit: 408 x 419 km, 51.6° (Epoch: 21 June)

Event Time Altitude Azimuth Distance (km) Brightness Sun altitude
Rises 18:07:51 0° 246° (WSW) 2,349 2.4 -8.2°
Reaches altitude 10° 18:09:55 10° 246° (WSW) 1,495 0.7 -8.6°
Maximum altitude 18:13:17 87° 331° (NNW) 429 -3.7 -9.1°
Enters shadow 18:16:12 14° 66° (ENE) 1,315 -1.9 -9.6°
